FW8563 Weather Reports


Display with metric or nautical units.
time (UTC)temp
F
wind
direction
speed
MPH
gust
MPH
rain 1hr
in
rain 24hr
in
rain mn
in
humidity
%
barometer
mb
20260509050855 54 333 0.0 1.0 0.00 0.54 0.00 91 1019.3
20260509050354 55 344 0.0 1.0 0.00 0.54 0.00 91 1019.3
20260509045851 55 5 0.0 1.0 0.00 0.54 0.00 92 1019.2
20260509045348 54 15 1.0 2.0 0.00 0.54 0.00 93 1019.2
20260509044348 53 346 0.0 1.0 0.00 0.54 0.00 92 1019.1
20260509043843 54 333 0.0 1.0 0.00 0.54 0.00 92 1019.1
20260509043346 54 11 0.0 1.0 0.00 0.54 0.00 92 1019.0
20260509042840 54 11 0.0 1.0 0.00 0.54 0.00 93 1018.9
20260509042342 54 15 0.0 1.0 0.00 0.54 0.00 93 1018.9
20260509041844 53 15 1.0 2.0 0.00 0.54 0.00 93 1018.9
20260509040840 53 13 0.0 2.0 0.00 0.54 0.00 92 1018.8
20260509040342 53 28 1.0 3.0 0.00 0.54 0.00 92 1018.6
20260509035336 53 36 1.0 4.0 0.00 0.54 0.00 92 1018.5
20260509034336 53 33 1.0 2.0 0.00 0.54 0.00 92 1018.6
20260509033836 53 25 0.0 1.0 0.00 0.54 0.00 92 1018.6
20260509033338 54 23 0.0 2.0 0.00 0.54 0.00 92 1018.6
20260509032836 53 18 1.0 3.0 0.00 0.54 0.00 92 1018.5
20260509032336 53 18 1.0 3.0 0.00 0.54 0.00 92 1018.2
20260509031837 53 20 1.0 2.0 0.00 0.54 0.00 91 1018.2
20260509031339 53 25 1.0 3.0 0.00 0.54 0.00 91 1018.2
20260509030336 53 24 1.0 3.0 0.00 0.54 0.00 91 1018.4
20260509025836 53 14 1.0 2.0 0.00 0.54 0.00 91 1018.4
20260509024836 54 346 0.0 0.0 0.00 0.54 0.00 90 1018.5
20260509024334 54 1 0.0 1.0 0.00 0.54 0.00 90 1018.5
20260509023833 54 11 1.0 3.0 0.00 0.54 0.00 89 1018.5
20260509023331 53 32 1.0 3.0 0.00 0.54 0.00 90 1018.4
20260509022824 53 21 2.0 4.0 0.00 0.54 0.00 90 1018.5
20260509022317 53 23 1.0 4.0 0.00 0.54 0.00 90 1018.4
20260509020821 53 18 1.0 2.0 0.00 0.54 0.00 90 1018.5
20260509020319 53 30 1.0 3.0 0.00 0.54 0.00 90 1018.4
20260509015816 53 32 2.0 3.0 0.00 0.54 0.00 89 1018.4
20260509015315 54 31 1.0 3.0 0.00 0.54 0.00 88 1018.4
20260509014815 55 26 1.0 2.0 0.00 0.54 0.00 88 1018.4
20260509014314 54 17 0.0 2.0 0.00 0.54 0.00 88 1018.4
20260509013813 54 8 0.0 0.0 0.00 0.54 0.00 88 1018.4
20260509013310 54 356 0.0 0.0 0.00 0.54 0.00 88 1018.4
20260509012808 54 15 0.0 0.0 0.00 0.54 0.00 88 1018.2
20260509012308 54 8 0.0 0.0 0.00 0.54 0.00 88 1018.4
20260509011808 54 11 0.0 0.0 0.00 0.54 0.00 87 1018.2
20260509010758 55 350 0.0 0.0 0.00 0.54 0.00 86 1018.5
20260509010252 55 349 0.0 0.0 0.00 0.54 0.00 86 1018.7
20260509005752 55 349 0.0 0.0 0.00 0.54 0.00 86 1018.6
20260509005251 55 346 0.0 0.0 0.00 0.54 0.00 86 1018.5
20260509004250 55 344 0.0 0.0 0.00 0.54 0.00 88 1018.5
20260509003748 55 341 0.0 0.0 0.00 0.54 0.00 88 1018.5
20260509003249 55 1 0.0 0.0 0.00 0.54 0.00 88 1018.5
20260509002748 55 357 0.0 0.0 0.00 0.54 0.00 88 1018.6
20260509002249 54 328 0.0 0.0 0.00 0.54 0.00 89 1018.5
20260509001747 54 321 0.0 0.0 0.00 0.54 0.00 89 1018.2
20260509000743 54 352 1.0 2.0 0.00 0.54 0.00 89 1018.2
20260508235743 54 356 1.0 2.0 0.00 0.54 0.00 90 1018.2
20260508235243 54 345 0.0 2.0 0.00 0.54 0.00 90 1018.2
20260508234741 54 342 0.0 1.0 0.00 0.54 0.00 91 1018.2
20260508234240 54 354 0.0 1.0 0.00 0.54 0.00 91 1018.2
20260508233740 53 302 0.0 1.0 0.00 0.54 0.00 93 1018.4
20260508232738 53 312 0.0 1.0 0.00 0.54 0.00 95 1018.4
20260508232240 53 326 0.0 1.0 0.00 0.54 0.00 95 1018.4
20260508231736 53 325 0.0 2.0 0.00 0.54 0.00 95 1018.2
20260508230736 53 271 1.0 4.0 0.00 0.54 0.00 95 1018.2
20260508230235 53 340 1.0 4.0 0.00 0.54 0.00 96 1018.2
20260508225236 53 303 2.0 5.0 0.01 0.54 0.00 96 1018.2
20260508224736 53 18 2.0 6.0 0.01 0.54 0.00 97 1018.1
20260508223723 53 347 3.0 6.0 0.02 0.54 0.00 97 1018.1
20260508223219 53 1 2.0 6.0 0.02 0.54 0.00 97 1018.1
20260508222720 53 332 1.0 6.0 0.02 0.54 0.00 97 1018.0
20260508222221 53 328 2.0 4.0 0.02 0.54 0.00 97 1018.0
20260508221717 53 334 2.0 5.0 0.02 0.54 0.00 97 1018.0
20260508221218 53 355 1.0 5.0 0.02 0.54 0.00 96 1018.0
20260508220718 54 334 2.0 5.0 0.02 0.54 0.00 96 1018.0
20260508220218 54 335 2.0 5.0 0.02 0.54 0.00 96 1018.0
20260508215216 54 33 3.0 5.0 0.02 0.54 0.54 96 1018.1
20260508214716 54 48 3.0 5.0 0.02 0.54 0.54 97 1018.0
20260508214217 54 32 3.0 6.0 0.01 0.53 0.53 97 1018.1
20260508213716 54 44 3.0 6.0 0.01 0.52 0.52 98 1018.0
20260508213216 54 12 3.0 6.0 0.02 0.52 0.52 98 1018.0
20260508212714 53 32 3.0 6.0 0.02 0.52 0.52 98 1018.1
20260508212212 53 5 2.0 4.0 0.02 0.52 0.52 98 1017.9
20260508211713 53 354 2.0 4.0 0.02 0.52 0.52 98 1018.0
20260508211210 53 352 2.0 4.0 0.02 0.52 0.52 98 1018.1
20260508210709 53 18 2.0 4.0 0.02 0.52 0.52 98 1018.1
20260508210211 53 60 2.0 4.0 0.02 0.52 0.52 98 1018.1
20260508205708 53 43 2.0 5.0 0.02 0.52 0.52 98 1018.1
20260508205209 53 40 2.0 6.0 0.02 0.52 0.52 98 1018.0
20260508204711 53 40 2.0 6.0 0.02 0.52 0.52 98 1018.2
20260508204208 53 33 2.0 7.0 0.02 0.52 0.52 98 1018.2
20260508203708 53 46 3.0 7.0 0.01 0.51 0.51 98 1018.2
20260508203210 53 46 3.0 7.0 0.00 0.50 0.51 98 1018.2
20260508202708 53 25 3.0 6.0 0.00 0.50 0.50 98 1018.2
20260508202210 53 27 3.0 6.0 0.00 0.50 0.50 98 1018.2
20260508200700 53 1 3.0 5.0 0.01 0.50 0.50 98 1018.1
20260508200200 53 6 3.0 7.0 0.01 0.50 0.50 98 1018.1
20260508195202 53 23 2.0 7.0 0.01 0.50 0.50 98 1017.9
20260508194700 53 16 3.0 5.0 0.01 0.50 0.50 98 1017.9
20260508194200 53 17 3.0 6.0 0.01 0.50 0.50 98 1017.9
20260508193700 53 4 3.0 6.0 0.01 0.50 0.50 98 1017.9
20260508193202 53 12 2.0 5.0 0.01 0.50 0.50 98 1017.8
20260508192700 53 4 2.0 4.0 0.01 0.50 0.50 98 1017.8
20260508192200 53 345 2.0 4.0 0.01 0.50 0.50 98 1017.7
20260508191702 53 359 2.0 4.0 0.02 0.50 0.50 98 1017.6
20260508190700 53 328 2.0 5.0 0.01 0.50 0.50 98 1017.4
20260508190200 53 31 3.0 6.0 0.01 0.50 0.50 98 1017.3
20260508185654 53 356 3.0 6.0 0.02 0.50 0.50 98 1017.2
20260508185147 53 18 4.0 7.0 0.02 0.50 0.50 98 1017.1
20260508184642 53 13 4.0 7.0 0.02 0.50 0.50 98 1017.0
20260508184141 53 0 3.0 7.0 0.02 0.50 0.50 98 1017.0
20260508183142 53 342 2.0 6.0 0.03 0.50 0.50 98 1016.9
20260508182642 53 24 2.0 5.0 0.03 0.50 0.50 98 1016.9
20260508181641 53 347 1.0 4.0 0.02 0.49 0.49 98 1016.8
20260508181138 53 305 1.0 4.0 0.03 0.49 0.49 98 1016.8
20260508180638 53 316 0.0 4.0 0.03 0.49 0.49 98 1016.6
20260508175641 53 322 1.0 4.0 0.03 0.48 0.48 98 1016.7
20260508175137 53 333 3.0 8.0 0.04 0.48 0.48 98 1016.7
20260508174640 53 321 4.0 8.0 0.03 0.47 0.47 98 1016.6
20260508174137 53 354 3.0 7.0 0.03 0.47 0.47 98 1016.7
20260508173631 53 349 3.0 7.0 0.03 0.46 0.46 98 1016.6
20260508173131 53 345 3.0 6.0 0.03 0.46 0.46 98 1016.6
20260508172132 53 11 4.0 9.0 0.04 0.46 0.46 98 1016.7
20260508171632 54 21 4.0 9.0 0.04 0.46 0.46 98 1016.8
20260508171131 54 18 4.0 9.0 0.03 0.46 0.46 98 1016.6
20260508170632 54 15 3.0 9.0 0.04 0.46 0.46 98 1016.6
20260508170134 54 41 3.0 8.0 0.04 0.46 0.46 98 1016.6
20260508165635 54 38 3.0 7.0 0.03 0.45 0.45 98 1016.6
20260508165133 54 61 3.0 10.0 0.03 0.44 0.44 98 1016.5
20260508164632 54 12 4.0 10.0 0.03 0.44 0.44 98 1016.5
20260508164133 54 50 5.0 11.0 0.04 0.44 0.44 98 1016.6
20260508163632 54 34 5.0 12.0 0.04 0.43 0.43 98 1016.5
20260508163133 54 58 5.0 13.0 0.04 0.43 0.43 98 1016.5
20260508162631 53 49 5.0 13.0 0.04 0.43 0.43 97 1016.4
20260508162134 53 26 6.0 12.0 0.04 0.43 0.43 97 1016.2
20260508161633 53 6 7.0 13.0 0.05 0.43 0.43 97 1016.0
20260508160635 53 32 7.0 13.0 0.04 0.42 0.42 97 1016.0
20260508160132 53 356 5.0 12.0 0.04 0.42 0.42 97 1016.0
20260508155127 54 41 4.0 11.0 0.04 0.41 0.42 97 1015.9
20260508154628 54 18 6.0 12.0 0.04 0.41 0.41 97 1015.9
20260508154128 54 30 8.0 15.0 0.03 0.40 0.40 97 1016.0
20260508153628 54 53 9.0 17.0 0.02 0.39 0.39 97 1015.9
20260508153130 54 85 9.0 17.0 0.02 0.39 0.39 97 1015.9
20260508151626 55 44 5.0 12.0 0.01 0.38 0.38 97 1016.0
20260508151123 55 79 5.0 12.0 0.01 0.38 0.38 97 1016.2
20260508150624 56 79 5.0 11.0 0.01 0.38 0.38 97 1016.1
20260508145624 56 96 6.0 14.0 0.01 0.38 0.38 97 1016.1
20260508145123 57 59 3.0 13.0 0.00 0.37 0.37 97 1016.1
20260508144626 58 77 1.0 5.0 0.00 0.37 0.37 98 1016.0
20260508144123 57 30 1.0 4.0 0.01 0.37 0.37 97 1015.7
20260508143620 57 7 2.0 5.0 0.01 0.37 0.37 97 1015.6
20260508143123 57 343 2.0 7.0 0.01 0.37 0.37 97 1015.5
20260508142620 57 10 3.0 7.0 0.01 0.37 0.37 97 1015.6
20260508142120 57 27 2.0 7.0 0.01 0.37 0.37 97 1015.5
20260508141621 57 15 2.0 7.0 0.01 0.37 0.37 97 1015.6
20260508141119 57 347 2.0 5.0 0.01 0.37 0.37 97 1015.5
20260508140617 57 330 2.0 6.0 0.01 0.37 0.37 97 1015.3
20260508140119 57 14 1.0 6.0 0.01 0.37 0.37 97 1015.3
20260508135619 57 338 1.0 5.0 0.01 0.37 0.37 97 1015.3
20260508135118 57 339 1.0 5.0 0.01 0.37 0.37 97 1015.4
20260508134616 57 25 1.0 5.0 0.01 0.37 0.37 97 1015.4
20260508134116 57 354 1.0 4.0 0.00 0.36 0.36 97 1015.5
20260508133616 58 342 1.0 4.0 0.00 0.36 0.36 97 1015.5
20260508133116 58 337 1.0 5.0 0.00 0.36 0.36 97 1015.4
20260508132613 58 359 1.0 5.0 0.00 0.36 0.36 97 1015.3
20260508132107 58 25 1.0 7.0 0.00 0.36 0.36 97 1015.3
20260508131604 58 266 1.0 7.0 0.00 0.36 0.36 97 1015.3
20260508131057 58 338 0.0 3.0 0.00 0.36 0.36 97 1015.2
20260508130557 58 321 0.0 3.0 0.09 0.36 0.36 97 1015.3
20260508130057 58 259 0.0 2.0 0.15 0.36 0.36 97 1015.3
20260508125056 57 316 0.0 3.0 0.20 0.36 0.36 97 1015.3
20260508124556 57 323 0.0 3.0 0.20 0.36 0.36 97 1015.4
20260508124053 57 281 0.0 1.0 0.27 0.36 0.36 97 1015.3
20260508123555 57 264 0.0 2.0 0.32 0.36 0.36 97 1015.4
20260508122553 56 285 1.0 3.0 0.36 0.36 0.36 96 1015.2
20260508122048 56 278 0.0 3.0 0.36 0.36 0.36 96 1015.2
20260508121049 56 231 1.0 6.0 0.36 0.36 0.36 96 1015.1
20260508120546 57 330 1.0 5.0 0.28 0.28 0.28 96 1015.3
20260508120048 57 347 2.0 5.0 0.21 0.21 0.21 96 1015.3
20260508115546 57 65 0.0 3.0 0.17 0.17 0.17 95 1015.3
20260508115048 58 90 0.0 1.0 0.17 0.17 0.17 95 1015.1
20260508114547 58 108 1.0 6.0 0.16 0.16 0.16 94 1015.2
20260508114044 59 94 4.0 10.0 0.09 0.09 0.10 92 1015.1
20260508113044 63 96 2.0 5.0 0.01 0.01 0.01 78 1015.1
20260508112542 65 144 1.0 5.0 0.00 0.00 0.00 74 1015.0
20260508112042 65 141 1.0 5.0 0.00 0.00 0.00 72 1014.9
20260508111542 65 200 1.0 5.0 0.00 0.00 0.00 70 1014.8
20260508111044 66 214 2.0 5.0 0.00 0.00 0.00 70 1014.9
20260508110543 66 217 2.0 4.0 0.00 0.00 0.00 70 1014.8
20260508110041 66 206 1.0 4.0 0.00 0.00 0.00 69 1014.8
20260508105541 67 167 1.0 4.0 0.00 0.00 0.00 69 1014.9
20260508105035 66 233 1.0 4.0 0.00 0.00 0.00 70 1014.9
20260508104535 66 134 1.0 4.0 0.00 0.00 0.00 70 1014.9
20260508104036 66 227 1.0 3.0 0.00 0.00 0.00 70 1014.9
20260508103535 66 246 1.0 4.0 0.00 0.00 0.00 69 1014.9
20260508103033 66 83 1.0 6.0 0.00 0.00 0.00 69 1014.9
20260508102534 66 149 2.0 6.0 0.00 0.00 0.00 68 1015.0
20260508101533 66 239 2.0 5.0 0.00 0.00 0.00 68 1015.0
20260508101035 66 221 1.0 6.0 0.00 0.00 0.00 70 1015.0
20260508100533 66 230 1.0 6.0 0.00 0.00 0.00 70 1014.9
20260508100033 66 255 1.0 4.0 0.00 0.00 0.00 68 1014.9
20260508095535 66 122 0.0 2.0 0.00 0.00 0.00 68 1014.9
20260508095033 65 205 0.0 2.0 0.00 0.00 0.00 72 1014.9
20260508094533 65 250 1.0 3.0 0.00 0.00 0.00 72 1014.9
20260508094034 65 281 1.0 3.0 0.00 0.00 0.00 73 1014.8
20260508093531 64 297 1.0 5.0 0.00 0.00 0.00 74 1014.9
20260508093031 64 319 1.0 5.0 0.00 0.00 0.00 73 1014.8
20260508092529 64 55 1.0 6.0 0.00 0.00 0.00 73 1014.8
20260508092030 64 72 1.0 6.0 0.00 0.00 0.00 73 1014.7
20260508091526 64 103 1.0 6.0 0.00 0.00 0.00 74 1014.7
20260508091027 64 34 2.0 6.0 0.00 0.00 0.00 74 1014.7
20260508090526 63 1 2.0 6.0 0.00 0.00 0.00 74 1014.7
20260508085528 63 27 1.0 5.0 0.00 0.00 0.00 74 1014.6
20260508085029 63 86 2.0 7.0 0.00 0.00 0.00 75 1014.5
20260508084029 63 56 2.0 8.0 0.00 0.00 0.00 75 1014.5
20260508083530 63 18 3.0 10.0 0.00 0.00 0.00 75 1014.4
20260508083025 63 35 4.0 10.0 0.00 0.00 0.00 76 1014.4
20260508082526 63 333 3.0 10.0 0.00 0.01 0.00 75 1014.4
20260508082024 63 18 3.0 7.0 0.00 0.01 0.00 76 1014.1
20260508081523 63 40 2.0 8.0 0.00 0.01 0.00 77 1014.2
20260508081024 62 60 3.0 8.0 0.00 0.01 0.00 76 1014.1
20260508080526 62 350 4.0 10.0 0.00 0.01 0.00 77 1014.1
20260508080023 62 37 4.0 10.0 0.00 0.01 0.00 77 1014.0
20260508075522 62 35 4.0 9.0 0.00 0.01 0.00 78 1014.0
20260508075021 62 25 4.0 9.0 0.00 0.01 0.00 77 1014.0
20260508074518 62 352 4.0 9.0 0.00 0.01 0.00 77 1013.9
20260508074019 62 4 4.0 8.0 0.00 0.01 0.00 77 1013.9
20260508073519 62 1 4.0 8.0 0.00 0.01 0.00 76 1013.9
20260508073018 62 13 4.0 10.0 0.00 0.01 0.00 77 1013.8
20260508072517 62 352 3.0 10.0 0.00 0.01 0.00 76 1013.7
20260508072017 62 9 3.0 6.0 0.00 0.01 0.00 77 1013.7
20260508071517 61 32 3.0 7.0 0.00 0.01 0.00 78 1013.7
20260508070517 61 23 3.0 8.0 0.00 0.01 0.00 78 1013.6
20260508070015 60 3 4.0 9.0 0.00 0.01 0.00 78 1013.6
20260508065516 60 41 4.0 9.0 0.00 0.01 0.00 79 1013.6
20260508064513 60 13 3.0 9.0 0.00 0.01 0.00 81 1013.5
20260508064014 59 11 3.0 8.0 0.00 0.01 0.00 81 1013.4
20260508063509 59 320 4.0 9.0 0.00 0.01 0.00 81 1013.4
20260508063008 58 44 6.0 11.0 0.00 0.01 0.00 81 1013.2
20260508062508 58 30 6.0 11.0 0.00 0.01 0.00 81 1013.3
20260508062011 58 27 6.0 12.0 0.00 0.01 0.00 82 1013.1
20260508061011 58 4 5.0 10.0 0.00 0.01 0.00 82 1013.2
20260508060510 57 25 5.0 10.0 0.00 0.01 0.00 82 1013.3
20260508060009 57 6 5.0 10.0 0.00 0.01 0.00 82 1013.3
20260508055008 57 13 5.0 10.0 0.00 0.01 0.00 82 1013.2
20260508054005 57 23 7.0 14.0 0.00 0.01 0.00 83 1013.0
20260508053504 57 16 7.0 12.0 0.00 0.01 0.00 83 1013.0
20260508053006 56 7 6.0 11.0 0.00 0.01 0.00 83 1013.0
20260508052504 56 11 5.0 11.0 0.00 0.01 0.00 84 1012.9
20260508052005 56 5 5.0 12.0 0.00 0.01 0.00 84 1013.0
20260508051459 56 15 5.0 12.0 0.00 0.01 0.00 84 1012.9